When you browse on this site, cookies collect data to enhance your experience and personalize the content and advertising you see.
Visit our Privacy Policy to learn more. By continuing to use the site, you agree to this use of cookies and data.
  • In Romania
  • List of Countries
  • For 7 days
  • Water Temperature
  • Satellite Maps
  • Weather Map
  • Weather Widgets
  • user-avatar
    Login

    Hourly Weather Razgrad

    Today, 26 March, Tuesday

    Time Temperature Precipitation Wind Pressure Humidity
    00:00 +12°C° 0 mm 2 mps 735 mmHg 56%
    01:00 +12°C° 0 mm 2 mps 736 mmHg 57%
    02:00 +10°C° 0 mm 2 mps 735 mmHg 57%
    03:00 +11°C° 0 mm 1 mps 736 mmHg 57%
    04:00 +11°C° 0 mm 1 mps 736 mmHg 57%
    05:00 +9°C° 0 mm 0 mps 736 mmHg 57%
    06:00 +11°C° 0 mm 1 mps 736 mmHg 60%
    07:00 +10°C° 0 mm 2 mps 737 mmHg 62%
    08:00 +11°C° 0 mm 4 mps 738 mmHg 65%
    09:00 +11°C° 0 mm 4 mps 738 mmHg 66%
    10:00 +12°C° 0 mm 4 mps 738 mmHg 66%
    11:00 +12°C° 0 mm 5 mps 739 mmHg 67%
    12:00 +12°C° 0.2 mm 4 mps 739 mmHg 70%
    13:00 +11°C° 0.2 mm 4 mps 739 mmHg 72%
    14:00 +11°C° 0.2 mm 4 mps 739 mmHg 75%
    15:00 +10°C° 0.4 mm 4 mps 739 mmHg 77%
    16:00 +8°C° 0.4 mm 4 mps 740 mmHg 80%
    17:00 +7°C° 0.4 mm 4 mps 740 mmHg 82%
    18:00 +8°C° 0.1 mm 3 mps 740 mmHg 83%
    19:00 +7°C° 0.1 mm 2 mps 741 mmHg 83%
    20:00 +8°C° 0.1 mm 1 mps 741 mmHg 84%
    21:00 +8°C° 0 mm 1 mps 741 mmHg 84%
    22:00 +7°C° 0 mm 0 mps 742 mmHg 85%
    23:00 +7°C° 0 mm 0 mps 742 mmHg 86%

    Tomorrow, 27 March, Wednesday

    Time Temperature Precipitation Wind Pressure Humidity
    00:00 +7°C° 0 mm 0 mps 742 mmHg 87%
    01:00 +7°C° 0 mm 1 mps 743 mmHg 88%
    02:00 +7°C° 0 mm 1 mps 743 mmHg 89%
    03:00 +7°C° 0 mm 1 mps 743 mmHg 87%
    04:00 +6°C° 0 mm 2 mps 743 mmHg 85%
    05:00 +5°C° 0 mm 2 mps 743 mmHg 82%
    06:00 +4°C° 0 mm 3 mps 743 mmHg 80%
    07:00 +5°C° 0 mm 4 mps 743 mmHg 77%
    08:00 +5°C° 0 mm 4 mps 744 mmHg 74%
    09:00 +6°C° 0 mm 4 mps 744 mmHg 75%
    10:00 +6°C° 0 mm 5 mps 744 mmHg 75%
    11:00 +7°C° 0 mm 5 mps 744 mmHg 75%
    12:00 +8°C° 0.1 mm 5 mps 745 mmHg 69%
    13:00 +11°C° 0.1 mm 4 mps 745 mmHg 62%
    14:00 +12°C° 0.1 mm 4 mps 745 mmHg 55%
    15:00 +12°C° 0.2 mm 4 mps 745 mmHg 56%
    16:00 +11°C° 0.2 mm 3 mps 745 mmHg 57%
    17:00 +12°C° 0.2 mm 2 mps 745 mmHg 58%
    18:00 +10°C° 0.2 mm 2 mps 746 mmHg 63%
    19:00 +9°C° 0.2 mm 2 mps 746 mmHg 68%
    20:00 +8°C° 0.2 mm 2 mps 747 mmHg 72%
    21:00 +8°C° 0 mm 2 mps 747 mmHg 72%
    22:00 +7°C° 0 mm 3 mps 748 mmHg 72%
    23:00 +7°C° 0 mm 3 mps 748 mmHg 71%

    Day after tomorrow, 28 March, Thursday

    Time Temperature Precipitation Wind Pressure Humidity
    00:00 +5°C° 0 mm 4 mps 749 mmHg 69%
    01:00 +4°C° 0 mm 4 mps 749 mmHg 67%
    02:00 +3°C° 0 mm 4 mps 749 mmHg 64%
    03:00 +3°C° 0 mm 4 mps 749 mmHg 63%
    04:00 +2°C° 0 mm 3 mps 749 mmHg 61%
    05:00 +1°C° 0 mm 3 mps 749 mmHg 59%
    06:00 +2°C° 0 mm 3 mps 750 mmHg 54%
    07:00 +3°C° 0 mm 3 mps 750 mmHg 49%
    08:00 +3°C° 0 mm 3 mps 750 mmHg 43%
    09:00 +5°C° 0 mm 4 mps 750 mmHg 41%
    10:00 +6°C° 0 mm 4 mps 751 mmHg 40%
    11:00 +7°C° 0 mm 4 mps 751 mmHg 38%
    12:00 +7°C° 0 mm 4 mps 750 mmHg 37%
    13:00 +8°C° 0 mm 4 mps 750 mmHg 37%
    14:00 +10°C° 0 mm 4 mps 750 mmHg 36%
    15:00 +8°C° 0 mm 4 mps 750 mmHg 37%
    16:00 +8°C° 0 mm 4 mps 749 mmHg 39%
    17:00 +8°C° 0 mm 4 mps 749 mmHg 40%
    18:00 +8°C° 0 mm 3 mps 749 mmHg 44%
    19:00 +5°C° 0 mm 3 mps 750 mmHg 48%
    20:00 +5°C° 0 mm 2 mps 750 mmHg 52%
    21:00 +5°C° 0 mm 2 mps 751 mmHg 53%
    22:00 +4°C° 0 mm 2 mps 751 mmHg 54%
    23:00 +4°C° 0 mm 2 mps 751 mmHg 55%

    29 March, Friday

    Time Temperature Precipitation Wind Pressure Humidity
    00:00 +4°C° 0 mm 2 mps 751 mmHg 53%
    01:00 +4°C° 0 mm 2 mps 752 mmHg 51%
    02:00 +3°C° 0 mm 2 mps 752 mmHg 50%
    03:00 +2°C° 0 mm 2 mps 752 mmHg 51%
    04:00 +2°C° 0 mm 2 mps 752 mmHg 52%
    05:00 +1°C° 0 mm 2 mps 751 mmHg 54%
    06:00 +1°C° 0 mm 3 mps 752 mmHg 54%
    07:00 0°C° 0 mm 4 mps 752 mmHg 53%
    08:00 +1°C° 0 mm 5 mps 752 mmHg 53%
    09:00 +3°C° 0 mm 5 mps 752 mmHg 51%
    10:00 +5°C° 0 mm 5 mps 752 mmHg 48%
    11:00 +6°C° 0 mm 5 mps 752 mmHg 45%
    12:00 +7°C° 0 mm 5 mps 752 mmHg 44%
    13:00 +7°C° 0 mm 5 mps 752 mmHg 43%
    14:00 +8°C° 0 mm 5 mps 751 mmHg 42%
    15:00 +8°C° 0 mm 5 mps 751 mmHg 41%
    16:00 +8°C° 0 mm 5 mps 751 mmHg 41%
    17:00 +7°C° 0 mm 5 mps 750 mmHg 41%
    18:00 +6°C° 0 mm 4 mps 750 mmHg 45%
    19:00 +5°C° 0 mm 3 mps 751 mmHg 48%
    20:00 +4°C° 0 mm 2 mps 751 mmHg 51%
    21:00 +4°C° 0 mm 2 mps 751 mmHg 54%
    22:00 +4°C° 0 mm 1 mps 751 mmHg 56%
    23:00 +3°C° 0 mm 1 mps 751 mmHg 58%

    30 March, Saturday

    Time Temperature Precipitation Wind Pressure Humidity
    00:00 +3°C° 0 mm 1 mps 751 mmHg 59%
    01:00 +3°C° 0 mm 1 mps 750 mmHg 60%
    02:00 +3°C° 0 mm 1 mps 750 mmHg 60%
    03:00 +2°C° 0 mm 1 mps 750 mmHg 60%
    04:00 +2°C° 0 mm 1 mps 750 mmHg 60%
    05:00 +1°C° 0 mm 2 mps 749 mmHg 59%
    06:00 +2°C° 0 mm 2 mps 749 mmHg 57%
    07:00 +3°C° 0 mm 2 mps 750 mmHg 55%
    08:00 +4°C° 0 mm 2 mps 750 mmHg 53%
    09:00 +5°C° 0 mm 3 mps 749 mmHg 51%
    10:00 +7°C° 0 mm 4 mps 749 mmHg 49%
    11:00 +9°C° 0 mm 5 mps 749 mmHg 47%
    12:00 +9°C° 0 mm 5 mps 748 mmHg 46%
    13:00 +10°C° 0 mm 6 mps 748 mmHg 46%
    14:00 +11°C° 0 mm 6 mps 747 mmHg 45%
    15:00 +11°C° 0 mm 6 mps 746 mmHg 46%
    16:00 +12°C° 0 mm 5 mps 746 mmHg 47%
    17:00 +12°C° 0 mm 5 mps 746 mmHg 48%
    18:00 +10°C° 0 mm 4 mps 746 mmHg 54%
    19:00 +9°C° 0 mm 3 mps 746 mmHg 59%
    20:00 +8°C° 0 mm 1 mps 746 mmHg 65%
    21:00 +8°C° 0 mm 1 mps 745 mmHg 67%
    22:00 +6°C° 0 mm 0 mps 745 mmHg 69%
    23:00 +6°C° 0 mm 0 mps 745 mmHg 71%

    31 March, Sunday

    Time Temperature Precipitation Wind Pressure Humidity
    00:00 +6°C° 0 mm 0 mps 745 mmHg 71%
    01:00 +7°C° 0 mm 1 mps 744 mmHg 71%
    02:00 +7°C° 0 mm 1 mps 744 mmHg 71%
    03:00 +7°C° 0 mm 1 mps 743 mmHg 72%
    04:00 +6°C° 0 mm 2 mps 743 mmHg 73%
    05:00 +6°C° 0 mm 2 mps 743 mmHg 74%
    06:00 +7°C° 0 mm 2 mps 743 mmHg 75%
    07:00 +7°C° 0 mm 2 mps 743 mmHg 75%
    08:00 +8°C° 0 mm 2 mps 742 mmHg 75%
    09:00 +9°C° 0 mm 3 mps 742 mmHg 69%
    10:00 +11°C° 0 mm 4 mps 742 mmHg 64%
    11:00 +13°C° 0 mm 4 mps 742 mmHg 58%
    12:00 +14°C° 0.1 mm 4 mps 741 mmHg 56%
    13:00 +14°C° 0.1 mm 4 mps 741 mmHg 54%
    14:00 +14°C° 0.1 mm 4 mps 740 mmHg 52%
    15:00 +14°C° 0.2 mm 4 mps 740 mmHg 53%
    16:00 +14°C° 0.2 mm 4 mps 740 mmHg 54%
    17:00 +14°C° 0.2 mm 4 mps 740 mmHg 55%
    18:00 +13°C° 0.1 mm 3 mps 740 mmHg 61%
    19:00 +12°C° 0.1 mm 2 mps 740 mmHg 67%
    20:00 +10°C° 0.1 mm 1 mps 740 mmHg 72%
    21:00 +10°C° 0 mm 1 mps 740 mmHg 75%
    22:00 +9°C° 0 mm 1 mps 740 mmHg 77%
    23:00 +7°C° 0 mm 0 mps 740 mmHg 80%
    Show more